Location: Kervinic
(48.4279°N, 4.7373°W)
Time: 09:26:06
(UTC+00:00)

Cosmos 1697 Rocket - Pass Details

Date: 09 April 2020
Orbit: 831 x 845 km, 71.0° (Epoch: 24 May)

Event Time Altitude Azimuth Distance (km) Brightness Sun altitude
Rises 21:05:00 0° 334° (NNW) 3,413 7.0 -19.2°
Reaches altitude 10° 21:07:34 10° 341° (NNW) 2,475 6.0 -19.5°
Maximum altitude 21:13:02 47° 54° (NE) 1,115 3.2 -20.2°
Enters shadow 21:14:49 36° 100° (E) 1,325 3.3 -20.4°
